timestamp,wind_dir_avg,wind_spd_avg,wind_spd_max_dir,wind_spd_gust,battery_voltage,lat,long
2021-11-25 00:04:01+00:00,114.0,7.77,105.0,11.2,12.57,47.59359,-54.27349
2021-11-25 00:14:00+00:00,108.0,3.67,96.0,8.37,12.57,47.59359,-54.27349
2021-11-25 00:24:00+00:00,103.0,2.75,104.0,6.01,12.57,47.59359,-54.27349
2021-11-25 00:34:00+00:00,94.0,4.82,83.0,9.61,12.57,47.59359,-54.27349
2021-11-25 00:44:00+00:00,76.0,4.81,88.0,9.44,12.57,47.59359,-54.27349
2021-11-25 00:54:00+00:00,91.0,5.24,99.0,10.54,12.57,47.59359,-54.27349
2021-11-25 01:04:00+00:00,74.0,5.79,73.0,10.14,12.57,47.59359,-54.27349
2021-11-25 01:14:01+00:00,79.0,5.02,94.0,9.21,12.57,47.59359,-54.27349
2021-11-25 01:24:01+00:00,90.0,4.37,83.0,9.57,12.57,47.59359,-54.27349
2021-11-25 01:34:01+00:00,85.0,5.0,74.0,10.08,12.57,47.59359,-54.27349
2021-11-25 01:44:01+00:00,94.0,3.96,81.0,9.28,12.57,47.59359,-54.27349
2021-11-25 01:54:01+00:00,93.0,6.37,114.0,10.79,12.57,47.59359,-54.27349
2021-11-25 02:04:01+00:00,83.0,3.48,74.0,9.91,12.57,47.59359,-54.27349
2021-11-25 02:14:00+00:00,92.0,5.4,108.0,11.05,12.57,47.59359,-54.27349
2021-11-25 02:24:00+00:00,83.0,4.61,102.0,10.64,12.57,47.59359,-54.27349
2021-11-25 02:34:00+00:00,84.0,4.97,86.0,10.03,12.57,47.59359,-54.27349
2021-11-25 02:44:00+00:00,69.0,4.06,60.0,4.98,12.57,47.59359,-54.27349
2021-11-25 02:54:00+00:00,84.0,5.29,88.0,10.31,12.57,47.59359,-54.27349
2021-11-25 03:04:00+00:00,69.0,5.61,76.0,9.51,12.57,47.59359,-54.27349
2021-11-25 03:14:00+00:00,75.0,4.05,77.0,9.74,12.57,47.59359,-54.27349
2021-11-25 03:24:00+00:00,56.0,4.6,57.0,4.96,12.57,47.59359,-54.27349
2021-11-25 03:34:00+00:00,56.0,4.24,62.0,4.69,12.57,47.59359,-54.27349
2021-11-25 03:44:00+00:00,29.0,4.48,29.0,4.76,12.57,47.59359,-54.27349
2021-11-25 03:54:00+00:00,40.0,4.56,40.0,4.94,12.57,47.59359,-54.27349
2021-11-25 04:04:00+00:00,41.0,3.11,40.0,3.94,12.57,47.59359,-54.27349
2021-11-25 04:14:01+00:00,49.0,4.75,45.0,5.18,12.49,47.59359,-54.27349
2021-11-25 04:24:01+00:00,51.0,5.42,61.0,6.36,12.49,47.59359,-54.27349
2021-11-25 04:34:01+00:00,56.0,5.33,68.0,7.74,12.49,47.59359,-54.27349
2021-11-25 04:44:01+00:00,55.0,5.81,68.0,8.53,12.49,47.59359,-54.27349
2021-11-25 04:54:01+00:00,55.0,5.33,69.0,7.78,12.49,47.59359,-54.27349
2021-11-25 05:04:01+00:00,56.0,5.61,70.0,9.1,12.49,47.59359,-54.27349
2021-11-25 05:14:00+00:00,67.0,8.22,71.0,10.06,12.49,47.59359,-54.27349
2021-11-25 05:24:00+00:00,67.0,8.67,69.0,10.37,12.49,47.59359,-54.27349
2021-11-25 05:34:00+00:00,65.0,7.06,66.0,9.83,12.49,47.59359,-54.27349
2021-11-25 05:44:00+00:00,62.0,6.47,72.0,8.57,12.49,47.59359,-54.27349
2021-11-25 05:54:00+00:00,62.0,8.22,66.0,10.23,12.49,47.59359,-54.27349
2021-11-25 06:04:00+00:00,57.0,7.27,67.0,10.01,12.49,47.59359,-54.27349
2021-11-25 06:14:01+00:00,48.0,6.84,59.0,8.58,12.49,47.59359,-54.27349
2021-11-25 06:24:01+00:00,43.0,6.3,43.0,6.76,12.49,47.59359,-54.27349
2021-11-25 06:34:01+00:00,53.0,5.4,56.0,6.41,12.49,47.59359,-54.27349
2021-11-25 06:44:01+00:00,59.0,7.23,68.0,9.61,12.49,47.59359,-54.27349
2021-11-25 06:54:01+00:00,63.0,8.58,64.0,9.89,12.49,47.59359,-54.27349
2021-11-25 07:04:01+00:00,57.0,6.7,66.0,9.48,12.49,47.59359,-54.27349
2021-11-25 07:14:01+00:00,55.0,6.42,67.0,10.34,12.41,47.59359,-54.27349
2021-11-25 07:24:01+00:00,42.0,5.26,43.0,6.03,12.41,47.59359,-54.27349
2021-11-25 07:34:01+00:00,51.0,5.22,52.0,5.76,12.41,47.59359,-54.27349
2021-11-25 07:44:01+00:00,42.0,5.24,41.0,5.68,12.41,47.59359,-54.27349
2021-11-25 07:54:01+00:00,37.0,5.48,39.0,6.03,12.41,47.59359,-54.27349
2021-11-25 08:04:01+00:00,34.0,6.14,34.0,6.67,12.41,47.59359,-54.27349
2021-11-25 08:14:01+00:00,33.0,6.68,34.0,7.19,12.41,47.59359,-54.27349
2021-11-25 08:24:01+00:00,31.0,6.66,33.0,7.24,12.41,47.59359,-54.27349
2021-11-25 08:34:01+00:00,37.0,6.83,37.0,7.52,12.41,47.59359,-54.27349
2021-11-25 08:44:01+00:00,36.0,6.19,32.0,6.92,12.41,47.59359,-54.27349
2021-11-25 08:54:01+00:00,41.0,6.01,49.0,6.74,12.41,47.59359,-54.27349
2021-11-25 09:04:01+00:00,35.0,6.43,36.0,6.92,12.41,47.59359,-54.27349
2021-11-25 09:14:00+00:00,50.0,6.26,59.0,8.47,12.41,47.59359,-54.27349
2021-11-25 09:24:00+00:00,43.0,6.04,56.0,8.38,12.41,47.59359,-54.27349
2021-11-25 09:34:00+00:00,42.0,5.53,43.0,5.8,12.41,47.59359,-54.27349
2021-11-25 09:44:00+00:00,41.0,5.51,50.0,6.75,12.41,47.59359,-54.27349
2021-11-25 09:54:00+00:00,28.0,5.47,30.0,5.95,12.41,47.59359,-54.27349
2021-11-25 10:04:00+00:00,33.0,5.11,31.0,5.53,12.41,47.59359,-54.27349
2021-11-25 10:14:00+00:00,38.0,5.76,36.0,6.5,12.41,47.59359,-54.27349
2021-11-25 10:24:00+00:00,31.0,7.71,31.0,8.43,12.41,47.59359,-54.27349
2021-11-25 10:34:00+00:00,28.0,7.62,28.0,8.79,12.41,47.59359,-54.27349
2021-11-25 10:44:00+00:00,32.0,7.46,31.0,8.47,12.41,47.59359,-54.27349
2021-11-25 10:54:00+00:00,36.0,7.44,45.0,8.54,12.41,47.59359,-54.27349
2021-11-25 11:04:00+00:00,33.0,6.98,33.0,7.51,12.41,47.59359,-54.27349
2021-11-25 11:14:00+00:00,38.0,6.51,38.0,7.23,12.41,47.59359,-54.27349
2021-11-25 11:24:00+00:00,53.0,7.28,60.0,9.8,12.41,47.59359,-54.27349
2021-11-25 11:34:00+00:00,50.0,6.74,63.0,9.06,12.41,47.59359,-54.27349
2021-11-25 11:44:00+00:00,49.0,6.6,61.0,9.13,12.41,47.59359,-54.27349
2021-11-25 11:54:00+00:00,41.0,6.45,38.0,6.88,12.41,47.59359,-54.27349
2021-11-25 12:04:00+00:00,35.0,7.0,36.0,7.42,12.41,47.59359,-54.27349
2021-11-25 12:14:01+00:00,35.0,6.5,35.0,7.19,12.41,47.59359,-54.27349
2021-11-25 12:24:01+00:00,31.0,5.75,38.0,6.66,12.41,47.59359,-54.27349
2021-11-25 12:34:01+00:00,27.0,6.18,31.0,7.02,12.41,47.59359,-54.27349
2021-11-25 12:44:01+00:00,27.0,5.88,25.0,6.37,12.41,47.59359,-54.27349
2021-11-25 12:54:01+00:00,34.0,6.35,34.0,6.94,12.41,47.59359,-54.27349
2021-11-25 13:04:01+00:00,31.0,7.36,32.0,8.05,12.41,47.59359,-54.27349
2021-11-25 13:14:01+00:00,32.0,7.15,32.0,7.82,12.73,47.59359,-54.27349
2021-11-25 13:24:01+00:00,35.0,7.38,44.0,8.32,12.73,47.59359,-54.27349
2021-11-25 13:34:01+00:00,33.0,6.91,34.0,7.4,12.73,47.59359,-54.27349
2021-11-25 13:44:01+00:00,35.0,6.03,37.0,7.14,12.73,47.59359,-54.27349
2021-11-25 13:54:01+00:00,40.0,6.18,34.0,7.3,12.73,47.59359,-54.27349
2021-11-25 14:04:01+00:00,31.0,7.22,37.0,8.05,12.73,47.59359,-54.27349
2021-11-25 14:14:01+00:00,40.0,6.25,36.0,6.84,12.89,47.59359,-54.27349
2021-11-25 14:24:01+00:00,37.0,6.64,49.0,8.31,12.89,47.59359,-54.27349
2021-11-25 14:34:01+00:00,73.0,3.39,72.0,5.31,12.89,47.59359,-54.27349
2021-11-25 14:44:01+00:00,79.0,3.41,90.0,7.34,12.89,47.59359,-54.27349
2021-11-25 14:54:01+00:00,71.0,4.9,79.0,8.81,12.89,47.59359,-54.27349
2021-11-25 15:04:01+00:00,68.0,3.79,61.0,4.66,12.89,47.59359,-54.27349
2021-11-25 15:14:01+00:00,22.0,4.86,23.0,5.65,13.21,47.59359,-54.27349
2021-11-25 15:24:01+00:00,37.0,4.13,36.0,5.12,13.21,47.59359,-54.27349
2021-11-25 15:34:01+00:00,65.0,3.81,66.0,4.87,13.21,47.59359,-54.27349
2021-11-25 15:44:01+00:00,64.0,3.99,59.0,5.12,13.21,47.59359,-54.27349
2021-11-25 15:54:01+00:00,88.0,3.28,108.0,9.81,13.21,47.59359,-54.27349
2021-11-25 16:04:01+00:00,82.0,3.91,80.0,9.6,13.21,47.59359,-54.27349
2021-11-25 16:14:01+00:00,86.0,4.94,74.0,10.04,12.97,47.59359,-54.27349
2021-11-25 16:24:01+00:00,79.0,4.19,75.0,10.18,12.97,47.59359,-54.27349
2021-11-25 16:34:01+00:00,74.0,4.03,74.0,7.54,12.97,47.59359,-54.27349
2021-11-25 16:44:01+00:00,76.0,4.71,86.0,8.98,12.97,47.59359,-54.27349
2021-11-25 16:54:01+00:00,79.0,3.47,81.0,4.55,12.97,47.59359,-54.27349
2021-11-25 17:04:01+00:00,61.0,4.55,68.0,6.14,12.97,47.59359,-54.27349
2021-11-25 17:14:00+00:00,53.0,4.24,51.0,4.5,12.73,47.59359,-54.27349
2021-11-25 17:24:00+00:00,59.0,4.05,58.0,4.57,12.73,47.59359,-54.27349
2021-11-25 17:34:00+00:00,77.0,4.09,78.0,9.3,12.73,47.59359,-54.27349
2021-11-25 17:44:00+00:00,79.0,4.67,87.0,9.79,12.73,47.59359,-54.27349
2021-11-25 17:54:00+00:00,79.0,3.9,76.0,8.75,12.73,47.59359,-54.27349
2021-11-25 18:04:00+00:00,78.0,3.84,82.0,9.28,12.73,47.59359,-54.27349
2021-11-25 18:14:01+00:00,80.0,4.78,90.0,10.29,12.65,47.59359,-54.27349
2021-11-25 18:24:01+00:00,77.0,5.79,76.0,9.78,12.65,47.59359,-54.27349
2021-11-25 18:34:01+00:00,77.0,7.11,80.0,10.32,12.65,47.59359,-54.27349
2021-11-25 18:44:01+00:00,80.0,6.48,92.0,10.79,12.65,47.59359,-54.27349
2021-11-25 18:54:01+00:00,75.0,8.56,68.0,11.29,12.65,47.59359,-54.27349
2021-11-25 19:04:01+00:00,83.0,8.86,84.0,10.9,12.65,47.59359,-54.27349
2021-11-25 19:14:01+00:00,77.0,10.25,76.0,11.03,12.57,47.59359,-54.27349
2021-11-25 19:24:01+00:00,75.0,10.4,80.0,11.79,12.57,47.59359,-54.27349
2021-11-25 19:34:01+00:00,79.0,8.91,74.0,10.94,12.57,47.59359,-54.27349
2021-11-25 19:44:01+00:00,80.0,7.05,71.0,10.91,12.57,47.59359,-54.27349
2021-11-25 19:54:01+00:00,83.0,4.63,88.0,9.64,12.57,47.59359,-54.27349
2021-11-25 20:04:01+00:00,85.0,5.35,87.0,10.48,12.57,47.59359,-54.27349
2021-11-25 20:14:01+00:00,94.0,4.15,105.0,10.25,12.49,47.59359,-54.27349
2021-11-25 20:24:01+00:00,83.0,3.87,88.0,7.88,12.49,47.59359,-54.27349
2021-11-25 20:34:01+00:00,77.0,3.97,83.0,7.51,12.49,47.59359,-54.27349
2021-11-25 20:44:01+00:00,86.0,2.54,93.0,4.54,12.49,47.59359,-54.27349
2021-11-25 20:54:01+00:00,90.0,3.2,128.0,5.53,12.49,47.59359,-54.27349
2021-11-25 21:04:01+00:00,75.0,5.45,88.0,9.95,12.49,47.59359,-54.27349
2021-11-25 21:14:01+00:00,88.0,3.67,81.0,9.3,12.41,47.59359,-54.27349
2021-11-25 21:24:01+00:00,97.0,3.36,119.0,7.2,12.41,47.59359,-54.27349
2021-11-25 21:34:01+00:00,88.0,4.39,96.0,9.65,12.41,47.59359,-54.27349
2021-11-25 21:44:01+00:00,86.0,3.25,97.0,9.01,12.41,47.59359,-54.27349
2021-11-25 21:54:01+00:00,81.0,3.25,59.0,4.78,12.41,47.59359,-54.27349
2021-11-25 22:04:01+00:00,79.0,3.35,77.0,8.13,12.41,47.59359,-54.27349
2021-11-25 22:14:01+00:00,92.0,7.09,100.0,10.51,12.41,47.59359,-54.27349
2021-11-25 22:24:01+00:00,97.0,7.49,112.0,10.86,12.41,47.59359,-54.27349
2021-11-25 22:34:01+00:00,98.0,7.57,123.0,11.51,12.41,47.59359,-54.27349
2021-11-25 22:44:01+00:00,84.0,6.22,108.0,10.99,12.41,47.59359,-54.27349
2021-11-25 22:54:01+00:00,79.0,5.67,101.0,10.39,12.41,47.59359,-54.27349
2021-11-25 23:04:01+00:00,82.0,7.14,80.0,10.86,12.41,47.59359,-54.27349
2021-11-25 23:14:00+00:00,81.0,7.95,72.0,10.88,12.41,47.59359,-54.27349
2021-11-25 23:24:00+00:00,91.0,7.56,107.0,11.19,12.41,47.59359,-54.27349
2021-11-25 23:34:00+00:00,90.0,3.71,96.0,9.04,12.41,47.59359,-54.27349
2021-11-25 23:44:00+00:00,93.0,3.58,100.0,9.82,12.41,47.59359,-54.27349
2021-11-25 23:54:00+00:00,88.0,4.99,101.0,10.77,12.41,47.59359,-54.27349
